sat.trackr.live / text

‹ back to catalog

STARLINK-11266 [DTC]

NORAD 60732 · 2024-152N

PAYLOAD ACTIVE UNKNOWN

§ Identity

Operator
Country
US
Launch date
2024-08-28
Launch site
AFETR
Launch vehicle
Mass (kg)
RCS (m²)

Purposes: comms

External: N2YO · Heavens-Above · Gunter

§ Orbital elements

Epoch: 2026-09-21T05:47:34.150272Z

Period
91.74 min
Inclination
53.1590°
Eccentricity
0.0001166
Mean motion
15.69711758 rev/d
Perigee alt
358.9 km
Apogee alt
360.5 km
Semi-major
6,737.9 km
B*
-4.8863e-6
RAAN
231.8780°
Arg perigee
85.0624°
Mean anomaly
275.0527°
Rev number
11,955

§ Raw data

STARLINK-11266 [DTC]1 60732U 24152N   26264.24136748 -.00001181  00000+0 -48863-5 0  99932 60732  53.1590 231.8780 0001166  85.0624 275.0527 15.69711758119550

JSON: /api/v1/satellites/60732 · /tle

For live sub-satellite position, see the globe view (requires WebGL).

§ Visibility from observer

Set your observer location to see the next 7 days of passes ≥ 10°. The values pass through the URL so the page stays shareable.

No JS? Fill the form by hand. The geolocation button needs JavaScript.